Location: Azul
(36.7830°S, 59.8500°W)
Time: 10:49:27
(UTC-03:00)

ISS - Pass Details

Date: 28 March 2020
Orbit: 416 x 423 km, 51.6° (Epoch: 02 April)

Event Time Altitude Azimuth Distance (km) Brightness Sun altitude
Exits shadow 05:45:27 28° 216° (SW) 834 -2.5 -17.7°
Maximum altitude 05:45:34 29° 213° (SSW) 833 -2.5 -17.7°
Drops below altitude 10° 05:48:38 10° 150° (SSE) 1,539 -0.4 -17.1°
Sets 05:50:57 0° 138° (SE) 2,410 0.9 -16.6°
